EW5205 Weather Reports


Display with metric or nautical units.
time (UTC)temp
F
wind
direction
speed
MPH
gust
MPH
rain 1hr
in
rain 24hr
in
rain mn
in
humidity
%
barometer
mb
20260901041604 74 177 0.0 0.0 0.00 0.00 0.00 50 1021.3
20260901040058 75 82 0.0 0.0 0.00 0.00 0.00 44 1021.3
20260901034558 73 39 0.0 9.0 0.00 0.00 0.00 54 1021.3
20260901033116 75 335 5.0 16.0 0.00 0.00 0.00 50 1021.3
20260901031557 76 328 7.0 17.0 0.00 0.00 0.00 46 1020.8
20260901030103 77 323 3.0 12.0 0.00 0.00 0.00 42 1020.4
20260901024555 78 10 4.0 15.0 0.00 0.00 0.00 38 1020.0
20260901023055 81 35 0.0 0.0 0.00 0.00 0.00 30 1019.3
20260901021602 83 139 0.0 1.0 0.00 0.00 0.00 27 1018.9
20260901020054 83 128 0.0 4.0 0.00 0.00 0.00 26 1018.6
20260901014553 84 157 0.0 6.0 0.00 0.00 0.00 25 1018.4
20260901013106 85 164 0.0 1.0 0.00 0.00 0.00 24 1018.2
20260901011610 87 156 0.0 8.0 0.00 0.00 0.00 22 1018.2
20260901010100 88 138 0.0 6.0 0.00 0.00 0.00 19 1018.1
20260901004549 88 128 0.0 7.0 0.00 0.07 0.00 19 1018.2
20260901003051 87 117 0.0 11.0 0.00 0.07 0.00 20 1018.3
20260901001549 89 131 8.0 16.0 0.00 0.07 0.00 19 1018.4
20260901000048 88 113 12.0 22.0 0.00 0.07 0.00 21 1018.3
20260831234556 87 128 13.0 22.0 0.00 0.07 0.00 23 1018.5
20260831233045 87 132 16.0 28.0 0.00 0.07 0.00 23 1018.7
20260831231544 90 125 11.0 24.0 0.00 0.07 0.00 23 1019.0
20260831230043 90 110 1.0 10.0 0.00 0.07 0.00 20 1018.7
20260831224545 91 137 9.0 16.0 0.00 0.07 0.00 20 1018.7
20260831223046 89 125 1.0 8.0 0.00 0.07 0.00 22 1018.9
20260831221556 88 188 0.0 0.0 0.00 0.07 0.00 21 1019.1
20260831220037 87 218 0.0 1.0 0.00 0.07 0.00 21 1019.4
20260831214539 85 223 1.0 11.0 0.00 0.07 0.00 26 1019.5
20260831213133 86 219 4.0 14.0 0.00 0.07 0.00 23 1019.6
20260831211552 86 264 4.0 19.0 0.00 0.07 0.00 20 1019.6
20260831204539 91 195 7.0 15.0 0.00 0.07 0.00 20 1019.5
20260831203130 92 215 3.0 8.0 0.00 0.07 0.00 19 1019.7
20260831201605 92 202 0.0 8.0 0.00 0.07 0.00 20 1020.0
20260831194604 93 247 0.0 1.0 0.00 0.07 0.00 21 1020.5
20260831193008 92 222 3.0 11.0 0.00 0.07 0.00 22 1020.7
20260831191601 89 253 0.0 9.0 0.00 0.07 0.00 25 1021.1
20260831184550 90 321 0.0 0.0 0.00 0.07 0.00 25 1021.4
20260831183007 89 181 0.0 0.0 0.00 0.07 0.00 26 1021.6
20260831181604 88 225 2.0 8.0 0.00 0.07 0.00 27 1021.9
20260831174546 88 223 4.0 11.0 0.00 0.07 0.00 27 1022.2
20260831173005 86 247 2.0 7.0 0.00 0.07 0.00 28 1022.4
20260831171604 85 312 4.0 8.0 0.00 0.07 0.00 29 1022.6
20260831164546 86 212 1.0 7.0 0.00 0.07 0.00 27 1022.7
20260831163002 86 261 0.0 2.0 0.00 0.07 0.00 27 1022.6
20260831161552 83 294 0.0 0.0 0.00 0.07 0.00 30 1022.7
20260831160052 80 78 0.0 0.0 0.00 0.07 0.00 33 1022.6
20260831154549 79 27 0.0 0.0 0.00 0.07 0.00 34 1022.7
20260831153009 79 60 0.0 0.0 0.00 0.07 0.00 35 1022.5
20260831151600 77 34 0.0 0.0 0.00 0.07 0.00 37 1022.7
20260831144607 75 29 0.0 0.0 0.00 0.07 0.00 39 1022.7
20260831143029 76 8 3.0 6.0 0.00 0.07 0.00 38 1022.6
20260831141526 74 21 2.0 6.0 0.00 0.07 0.00 41 1022.5
20260831140027 72 24 0.0 0.0 0.00 0.07 0.00 46 1022.2
20260831134526 68 58 0.0 0.0 0.00 0.07 0.00 54 1022.1
20260831133032 67 55 0.0 0.0 0.00 0.07 0.00 54 1022.1
20260831131521 64 9 0.0 0.0 0.00 0.07 0.00 59 1021.9
20260831130019 64 323 0.0 0.0 0.00 0.07 0.00 59 1021.8
20260831124519 63 66 0.0 0.0 0.00 0.07 0.00 59 1021.7
20260831123015 62 46 0.0 0.0 0.00 0.07 0.00 63 1021.6
20260831121512 64 76 0.0 0.0 0.00 0.07 0.00 60 1021.6
20260831120009 65 86 0.0 0.0 0.00 0.07 0.00 56 1021.3
20260831114507 65 94 0.0 0.0 0.00 0.07 0.00 56 1021.3
20260831113004 65 34 0.0 0.0 0.00 0.07 0.00 56 1021.3
20260831111501 66 83 0.0 0.0 0.00 0.07 0.00 57 1021.3
20260831110101 67 121 0.0 0.0 0.00 0.07 0.00 53 1020.9
20260831104555 68 152 0.0 0.0 0.00 0.07 0.00 50 1021.0
20260831103059 70 124 0.0 0.0 0.00 0.07 0.00 45 1021.0
20260831101555 71 107 0.0 2.0 0.00 0.07 0.00 44 1020.9
20260831100049 72 110 0.0 3.0 0.00 0.07 0.00 43 1020.9
20260831094547 72 118 0.0 1.0 0.00 0.07 0.00 43 1020.9
20260831093045 71 111 0.0 0.0 0.00 0.07 0.00 45 1021.1
20260831091555 72 106 0.0 0.0 0.00 0.07 0.00 45 1021.0
20260831090038 74 126 0.0 0.0 0.00 0.07 0.00 40 1021.0
20260831084539 74 107 0.0 8.0 0.00 0.07 0.00 40 1021.1
20260831083033 75 113 2.0 7.0 0.00 0.07 0.00 38 1020.9
20260831081537 76 106 5.0 14.0 0.00 0.07 0.00 36 1020.7
20260831080055 75 98 1.0 9.0 0.00 0.07 0.00 39 1020.8
20260831074529 75 85 6.0 10.0 0.00 0.07 0.00 38 1020.8
20260831073055 75 80 5.0 10.0 0.00 0.07 0.00 39 1020.7
20260831071523 75 102 8.0 10.0 0.00 0.07 0.00 39 1020.7
20260831070027 76 138 2.0 12.0 0.00 0.07 0.00 38 1020.7
20260831064520 77 89 9.0 12.0 0.00 0.07 0.00 36 1020.8
20260831063024 77 94 8.0 12.0 0.00 0.07 0.00 37 1020.8
20260831061513 76 83 0.0 7.0 0.00 0.07 0.00 40 1020.9
20260831060012 76 76 2.0 9.0 0.00 0.07 0.00 39 1020.9
20260831054514 76 97 6.0 10.0 0.00 0.07 0.07 41 1021.0
20260831053008 77 91 1.0 4.0 0.00 0.07 0.07 43 1021.1
20260831051506 80 47 0.0 4.0 0.00 0.07 0.07 36 1021.2
20260831050004 79 270 9.0 14.0 0.00 0.07 0.07 39 1021.1
20260831044605 80 204 15.0 20.0 0.00 0.07 0.07 35 1021.2
20260831043055 77 162 4.0 8.0 0.00 0.07 0.07 47 1021.3